Location: Aula-Vintri
(58.3875°N, 22.4322°E)
Time: 14:52:59
(UTC+00:00)

Cosmos 2061 Rocket - Pass Details

Date: 13 October 2019
Orbit: 965 x 1013 km, 82.9° (Epoch: 21 November)

Event Time Altitude Azimuth Distance (km) Brightness Sun altitude
Rises 18:09:30 0° 347° (NNW) 3,725 7.5 -21.2°
Reaches altitude 10° 18:12:04 10° 350° (N) 2,765 6.8 -21.6°
Maximum altitude 18:18:24 69° 73° (ENE) 1,051 3.9 -22.3°
Enters shadow 18:20:42 40° 144° (SE) 1,402 4.4 -22.6°
